Previsão horária em Ceglarki

Hoje, 31 Julho, Sábado

Tempo Temperatura Precipitação Vento Pressão Humidade
00:00 +14°C° 0 mm 3 m/s 749 mmHg 70%
01:00 +14°C° 0 mm 3 m/s 750 mmHg 71%
02:00 +14°C° 0 mm 3 m/s 749 mmHg 71%
03:00 +13°C° 0 mm 3 m/s 749 mmHg 72%
04:00 +13°C° 0 mm 3 m/s 749 mmHg 72%
05:00 +16°C° 0 mm 3 m/s 749 mmHg 69%
06:00 +18°C° 0 mm 3 m/s 749 mmHg 67%
07:00 +19°C° 0 mm 4 m/s 750 mmHg 64%
08:00 +21°C° 0 mm 4 m/s 750 mmHg 60%
09:00 +23°C° 0 mm 4 m/s 749 mmHg 56%
10:00 +26°C° 0 mm 4 m/s 749 mmHg 53%
11:00 +26°C° 0 mm 4 m/s 749 mmHg 52%
12:00 +27°C° 0 mm 4 m/s 749 mmHg 52%
13:00 +28°C° 0 mm 4 m/s 749 mmHg 51%
14:00 +27°C° 0.4 mm 4 m/s 748 mmHg 58%
15:00 +25°C° 0.4 mm 5 m/s 748 mmHg 66%
16:00 +23°C° 0.4 mm 5 m/s 748 mmHg 73%
17:00 +22°C° 0.2 mm 4 m/s 748 mmHg 76%
18:00 +21°C° 0.2 mm 3 m/s 748 mmHg 79%
19:00 +20°C° 0.2 mm 2 m/s 748 mmHg 81%
20:00 +19°C° 0 mm 2 m/s 748 mmHg 85%
21:00 +18°C° 0 mm 2 m/s 749 mmHg 88%
22:00 +18°C° 0 mm 1 m/s 749 mmHg 91%
23:00 +16°C° 0 mm 2 m/s 749 mmHg 90%

Amanhã, 1 Agosto, Domingo

Tempo Temperatura Precipitação Vento Pressão Humidade
00:00 +16°C° 0 mm 3 m/s 750 mmHg 90%
01:00 +15°C° 0 mm 4 m/s 750 mmHg 90%
02:00 +14°C° 0 mm 4 m/s 750 mmHg 87%
03:00 +14°C° 0 mm 4 m/s 750 mmHg 84%
04:00 +14°C° 0 mm 4 m/s 750 mmHg 82%
05:00 +15°C° 0 mm 5 m/s 750 mmHg 79%
06:00 +16°C° 0 mm 5 m/s 750 mmHg 77%
07:00 +17°C° 0 mm 5 m/s 750 mmHg 75%
08:00 +19°C° 0 mm 5 m/s 750 mmHg 70%
09:00 +20°C° 0 mm 5 m/s 751 mmHg 65%
10:00 +22°C° 0 mm 5 m/s 751 mmHg 60%
11:00 +22°C° 0 mm 5 m/s 751 mmHg 58%
12:00 +23°C° 0 mm 4 m/s 751 mmHg 56%
13:00 +23°C° 0 mm 4 m/s 751 mmHg 55%
14:00 +22°C° 0.1 mm 5 m/s 751 mmHg 62%
15:00 +20°C° 0.1 mm 5 m/s 751 mmHg 70%
16:00 +19°C° 0.1 mm 6 m/s 751 mmHg 78%
17:00 +17°C° 0 mm 5 m/s 751 mmHg 80%
18:00 +18°C° 0 mm 4 m/s 750 mmHg 82%
19:00 +17°C° 0 mm 3 m/s 750 mmHg 84%
20:00 +16°C° 0 mm 3 m/s 750 mmHg 86%
21:00 +16°C° 0 mm 3 m/s 750 mmHg 89%
22:00 +15°C° 0 mm 2 m/s 750 mmHg 91%
23:00 +15°C° 0 mm 2 m/s 750 mmHg 93%

Depois de amanhã, 2 Agosto, Segunda-feira

Tempo Temperatura Precipitação Vento Pressão Humidade
00:00 +14°C° 0 mm 2 m/s 750 mmHg 94%
01:00 +14°C° 0 mm 2 m/s 750 mmHg 96%
02:00 +14°C° 0 mm 2 m/s 750 mmHg 95%
03:00 +14°C° 0 mm 2 m/s 750 mmHg 95%
04:00 +14°C° 0 mm 2 m/s 750 mmHg 95%
05:00 +16°C° 0 mm 2 m/s 750 mmHg 90%
06:00 +17°C° 0 mm 3 m/s 750 mmHg 86%
07:00 +18°C° 0 mm 3 m/s 750 mmHg 81%
08:00 +19°C° 0.1 mm 4 m/s 750 mmHg 75%
09:00 +20°C° 0.1 mm 4 m/s 750 mmHg 69%
10:00 +21°C° 0.1 mm 5 m/s 750 mmHg 63%
11:00 +21°C° 0.5 mm 5 m/s 750 mmHg 65%
12:00 +21°C° 0.5 mm 5 m/s 750 mmHg 68%
13:00 +21°C° 0.5 mm 5 m/s 750 mmHg 70%
14:00 +21°C° 0.4 mm 5 m/s 750 mmHg 69%
15:00 +21°C° 0.4 mm 4 m/s 751 mmHg 68%
16:00 +21°C° 0.4 mm 4 m/s 751 mmHg 67%
17:00 +20°C° 0.2 mm 4 m/s 751 mmHg 70%
18:00 +19°C° 0.2 mm 3 m/s 751 mmHg 72%
19:00 +17°C° 0.2 mm 2 m/s 751 mmHg 75%
20:00 +16°C° 0 mm 3 m/s 751 mmHg 77%
21:00 +14°C° 0 mm 3 m/s 752 mmHg 79%
22:00 +14°C° 0 mm 3 m/s 752 mmHg 81%
23:00 +13°C° 0 mm 3 m/s 752 mmHg 81%

3 Agosto, Terça-feira

Tempo Temperatura Precipitação Vento Pressão Humidade
00:00 +13°C° 0 mm 4 m/s 752 mmHg 81%
01:00 +12°C° 0 mm 4 m/s 752 mmHg 82%
02:00 +12°C° 0 mm 4 m/s 752 mmHg 84%
03:00 +12°C° 0 mm 4 m/s 753 mmHg 86%
04:00 +12°C° 0 mm 4 m/s 753 mmHg 88%
05:00 +13°C° 0 mm 4 m/s 753 mmHg 85%
06:00 +15°C° 0 mm 4 m/s 753 mmHg 82%
07:00 +17°C° 0 mm 4 m/s 754 mmHg 79%
08:00 +18°C° 0 mm 4 m/s 754 mmHg 70%
09:00 +20°C° 0 mm 4 m/s 754 mmHg 62%
10:00 +22°C° 0 mm 4 m/s 755 mmHg 53%
11:00 +22°C° 0 mm 4 m/s 755 mmHg 51%
12:00 +22°C° 0 mm 4 m/s 755 mmHg 49%
13:00 +23°C° 0 mm 4 m/s 755 mmHg 46%
14:00 +24°C° 0 mm 3 m/s 755 mmHg 47%
15:00 +24°C° 0 mm 3 m/s 755 mmHg 48%
16:00 +24°C° 0 mm 2 m/s 755 mmHg 48%
17:00 +21°C° 0 mm 2 m/s 755 mmHg 53%
18:00 +20°C° 0 mm 2 m/s 755 mmHg 59%
19:00 +19°C° 0 mm 1 m/s 755 mmHg 64%
20:00 +18°C° 0 mm 2 m/s 756 mmHg 66%
21:00 +17°C° 0 mm 2 m/s 756 mmHg 68%
22:00 +16°C° 0 mm 2 m/s 756 mmHg 71%
23:00 +16°C° 0 mm 2 m/s 756 mmHg 72%

4 Agosto, Quarta-feira

Tempo Temperatura Precipitação Vento Pressão Humidade
00:00 +14°C° 0 mm 3 m/s 756 mmHg 73%
01:00 +14°C° 0 mm 3 m/s 756 mmHg 74%
02:00 +14°C° 0 mm 3 m/s 756 mmHg 77%
03:00 +13°C° 0 mm 3 m/s 756 mmHg 79%
04:00 +13°C° 0 mm 3 m/s 755 mmHg 82%
05:00 +16°C° 0 mm 3 m/s 755 mmHg 76%
06:00 +17°C° 0 mm 3 m/s 756 mmHg 71%
07:00 +19°C° 0 mm 3 m/s 756 mmHg 65%
08:00 +20°C° 0 mm 3 m/s 755 mmHg 60%
09:00 +22°C° 0 mm 3 m/s 755 mmHg 54%
10:00 +25°C° 0 mm 3 m/s 755 mmHg 48%
11:00 +25°C° 0 mm 3 m/s 755 mmHg 46%
12:00 +26°C° 0 mm 3 m/s 755 mmHg 43%
13:00 +26°C° 0 mm 3 m/s 754 mmHg 41%
14:00 +26°C° 0 mm 3 m/s 754 mmHg 43%
15:00 +26°C° 0 mm 3 m/s 754 mmHg 45%
16:00 +26°C° 0 mm 3 m/s 754 mmHg 48%
17:00 +24°C° 0 mm 3 m/s 754 mmHg 53%
18:00 +22°C° 0 mm 3 m/s 753 mmHg 59%
19:00 +20°C° 0 mm 3 m/s 753 mmHg 65%
20:00 +20°C° 0 mm 3 m/s 753 mmHg 66%
21:00 +19°C° 0 mm 3 m/s 753 mmHg 67%
22:00 +18°C° 0 mm 3 m/s 753 mmHg 68%
23:00 +18°C° 0 mm 3 m/s 753 mmHg 69%

5 Agosto, Quinta-feira

Tempo Temperatura Precipitação Vento Pressão Humidade
00:00 +18°C° 0 mm 2 m/s 753 mmHg 70%
01:00 +18°C° 0 mm 2 m/s 753 mmHg 71%
02:00 +17°C° 0 mm 2 m/s 752 mmHg 73%
03:00 +17°C° 0 mm 2 m/s 752 mmHg 75%
04:00 +18°C° 0 mm 1 m/s 752 mmHg 78%
05:00 +18°C° 0.1 mm 1 m/s 752 mmHg 78%
06:00 +17°C° 0.1 mm 2 m/s 752 mmHg 78%
07:00 +18°C° 0.1 mm 2 m/s 751 mmHg 78%
08:00 +17°C° 1.4 mm 2 m/s 751 mmHg 83%
09:00 +17°C° 1.4 mm 3 m/s 751 mmHg 88%
10:00 +16°C° 1.4 mm 3 m/s 751 mmHg 93%
11:00 +17°C° 0.8 mm 4 m/s 751 mmHg 93%
12:00 +17°C° 0.8 mm 4 m/s 751 mmHg 92%
13:00 +16°C° 0.8 mm 5 m/s 751 mmHg 92%
14:00 +16°C° 0.7 mm 5 m/s 750 mmHg 93%
15:00 +16°C° 0.7 mm 5 m/s 750 mmHg 95%
16:00 +15°C° 0.7 mm 5 m/s 750 mmHg 96%
17:00 +15°C° 0.4 mm 4 m/s 750 mmHg 97%
18:00 +15°C° 0.4 mm 4 m/s 750 mmHg 97%
19:00 +15°C° 0.4 mm 4 m/s 749 mmHg 97%
20:00 +16°C° 0 mm 3 m/s 749 mmHg 98%
21:00 +16°C° 0 mm 3 m/s 749 mmHg 98%
22:00 +16°C° 0 mm 3 m/s 749 mmHg 98%
23:00 +16°C° 0.1 mm 3 m/s 749 mmHg 98%
Mostrar mais

Necessitamos do seu Consentimento

A Meteoprog e os seus Fornecedores de Serviços podem armazenar e aceder a dados pessoais como cookies, identificadores do dispositivo ou outras tecnologias semelhantes existentes no seu dispositivo e processar estes dados para personalizar conteúdos e anúncios, assim como funcionalidades nas redes sociais e análise de tráfego.

  • Armazenar e/ou aceder a informações no seu dispositivo

    Os cookies, identificadores do dispositivo ou outras informações podem ser armazenados ou acedidos no seu dispositivo, para os fins acima indicados.

  • Anúncios e conteúdos personalizados, medição de anúncios e conteúdos, dados sobre o público-alvo e desenvolvimento de produtos

    Os anúncios e os conteúdos podem ser personalizados com base num perfil. Podem ser adicionados dados adicionais para uma maior personalização dos anúncios e dos conteúdos. A eficácia dos anúncios e dos conteúdos pode ser medida. Podem ser obtidas informações sobre o público que visualizou os anúncios e os conteúdos. Estes dados podem ser usados para desenvolver ou melhorar sistemas, softwares ou a experiência do utilizador.

Ao clicar em "Eu concordo”, permitirá o uso de cookies, identificadores do dispositivo e web beacons mencionados ou outras tecnologias semelhantes. As configurações do navegador do seu dispositivo podem ser alteradas.

Para certos fins, podem ser invocados interesses legítimos ao invés de consentimento. Pode ler mais informação sobre este assunto na nossa Política de Privacidade e Cookies.